UC IPM Online UC ANR home page UC IPM home page

UC IPM Home

SKIP navigation

 

How to Manage Pests

Interactive Tools and Models:
Grape Powdery Mildew Risk Assessment Index

RAI report for Amador_Eagle-01.P (EAG1, Screaming Eagle)

Time period: March 29, 2013, to September 29, 2013,
retrieved on December 27, 2014.
Choose year
Graph of RAI for Amador_Eagle-01.P

Because estimated data are included in the index, use reported RAI with caution. Interpret RAI using field surveys and your knowledge of the particular vineyard, along with additional weather data if you have it.

Date RAI Disease pressure Pathogen status Hours
70° ≤ Temp ≤ 85°
Hours
Temp > 95°
Notes
03/29/2013 20 n/a no infection 6.3 0.00  
03/30/2013 0 n/a no infection 1.1 0.00  
03/31/2013 0 n/a no infection 0.0 0.00  
04/01/2013 0 n/a no infection 0.0 0.00  
04/02/2013 0 n/a no infection 0.0 0.00  
04/03/2013 0 n/a no infection 1.8 0.00  
04/04/2013 0 n/a no infection 0.0 0.00  
04/05/2013 0 n/a no infection 0.0 0.00  
04/06/2013 0 n/a no infection 0.0 0.00  
04/07/2013 0 n/a no infection 0.0 0.00  
04/08/2013 0 n/a no infection 0.0 0.00  
04/09/2013 0 n/a no infection 0.0 0.00  
04/10/2013 20 n/a no infection 8.7 0.00  
04/11/2013 0 n/a no infection 4.0 0.00  
04/12/2013 20 n/a no infection 6.0 0.00  
04/13/2013 0 n/a no infection 1.8 0.00  
04/14/2013 0 n/a no infection 0.0 0.00  
04/15/2013 0 n/a no infection 0.0 0.00  
04/16/2013 0 n/a no infection 0.0 0.00  
04/17/2013 0 n/a no infection 0.0 0.00  
04/18/2013 0 n/a no infection 0.2 0.00  
04/19/2013 20 n/a no infection 7.9 0.00  
04/20/2013 40 n/a no infection 10.2 0.00  
04/21/2013 60 n/a no infection 10.8 0.00  
04/22/2013 80 n/a no infection 11.1 0.00  
04/23/2013 100 n/a no infection 10.1 0.00  
04/24/2013 100 n/a no infection 10.6 0.00  
04/25/2013 90 n/a no infection 2.6 0.00  
04/26/2013 100 n/a no infection 7.7 0.00  
04/27/2013 100 n/a no infection 10.9 0.00  
04/28/2013 100 n/a no infection 7.3 0.00  
04/29/2013 100 n/a no infection 6.1 0.00  
04/30/2013 100 n/a no infection 8.7 0.00  
05/01/2013 100 n/a no infection 11.5 0.00  
05/02/2013 90 n/a no infection 5.4 0.00  
05/03/2013 80 n/a no infection 4.6 0.00  
05/04/2013 100 n/a no infection 11.7 0.00  
05/05/2013 90 n/a no infection 0.7 0.00  
05/06/2013 80 n/a no infection 0.3 0.00  
05/07/2013 70 n/a no infection 0.0 0.00  
05/08/2013 60 n/a no infection 2.2 0.00  
05/09/2013 80 n/a no infection 7.3 0.00  
05/10/2013 100 n/a no infection 9.9 0.00  
05/11/2013 90 n/a no infection 5.4 0.00  
05/12/2013 80 n/a no infection 4.4 0.00  
05/13/2013 70 n/a no infection 4.8 0.00  
05/14/2013 60 n/a no infection 5.8 0.00  
05/15/2013 80 n/a no infection 8.3 0.00  
05/16/2013 70 n/a no infection 0.0 0.00  
05/17/2013 60 n/a no infection 5.1 0.00  
05/18/2013 80 n/a no infection 8.2 0.00  
05/19/2013 100 n/a no infection 11.3 0.00  
05/20/2013 90 n/a no infection 5.6 0.00  
05/21/2013 100 n/a no infection 9.2 0.00  
05/22/2013 90 n/a no infection 1.4 0.00  
05/23/2013 80 n/a no infection 4.8 0.00  
05/24/2013 100 n/a no infection 8.0 0.00  
05/25/2013 100 n/a no infection 6.9 0.00  
05/26/2013 90 n/a no infection 5.8 0.00  
05/27/2013 80 n/a no infection 0.0 0.00  
05/28/2013 100 n/a no infection 6.7 0.00  
05/29/2013 100 n/a no infection 8.4 0.00  
05/30/2013 100 n/a no infection 10.3 0.00  
05/31/2013 90 n/a no infection 4.0 0.00  
06/01/2013 80 n/a no infection 2.6 0.09  
06/02/2013 70 n/a no infection 2.9 0.34  
06/03/2013 60 n/a no infection 4.7 0.00  
06/04/2013 80 n/a no infection 10.0 0.00  
06/05/2013 70 n/a no infection 4.4 0.00  
06/06/2013 60 n/a no infection 4.0 0.08  
06/07/2013 50 n/a no infection 2.0 6.52  
06/08/2013 40 n/a no infection 2.9 9.02  
06/09/2013 60 n/a no infection 9.5 0.00  
06/10/2013 50 n/a no infection 3.5 0.00  
06/11/2013 70 n/a no infection 11.4 0.00  
06/12/2013 60 n/a no infection 5.6 0.00  
06/13/2013 80 n/a no infection 10.0 0.00  
06/14/2013 70 n/a no infection 5.2 0.00  
06/15/2013 60 n/a no infection 4.7 0.00  
06/16/2013 50 n/a no infection 5.5 0.00  
06/17/2013 70 n/a no infection 11.2 0.00  
06/18/2013 90 n/a no infection 6.8 0.00  
06/19/2013 100 n/a no infection 8.7 0.00  
06/20/2013 100 n/a no infection 10.9 0.00  
06/21/2013 90 n/a no infection 5.3 0.00  
06/22/2013 80 n/a no infection 4.2 0.00  
06/23/2013 70 n/a no infection 3.9 0.00  
06/24/2013 60 n/a no infection 0.0 0.00  
06/25/2013 80 n/a no infection 8.1 0.00  
06/26/2013 70 n/a no infection 5.2 0.00  
06/27/2013 60 n/a no infection 3.7 1.97  
06/28/2013 50 n/a no infection 3.2 7.00  
06/29/2013 40 n/a no infection 3.2 9.06  
06/30/2013 30 n/a no infection 3.2 8.68  
07/01/2013 20 n/a no infection 3.4 9.70  
07/02/2013 30 n/a no infection 8.2 8.81  
07/03/2013 20 n/a no infection 3.7 7.85  
07/04/2013 10 n/a no infection 4.6 9.27  
07/05/2013 0 n/a no infection 4.2 0.00  
07/06/2013 0 n/a no infection 4.7 0.00  
07/07/2013 0 n/a no infection 3.5 0.43  
07/08/2013 0 n/a no infection 3.0 0.76  
07/09/2013 0 n/a no infection 2.1 7.10  
07/10/2013 0 n/a no infection 2.4 4.03  
07/11/2013 0 n/a no infection 3.8 0.00  
07/12/2013 0 n/a no infection 4.6 0.00  
07/13/2013 0 n/a no infection 2.3 0.16  
07/14/2013 0 n/a no infection 2.8 0.94  
07/15/2013 0 n/a no infection 3.6 0.00  
07/16/2013 20 n/a no infection 9.6 0.00  
07/17/2013 10 n/a no infection 3.4 0.00  
07/18/2013 0 n/a no infection 2.8 2.82  
07/19/2013 0 n/a no infection 2.0 5.20  
07/20/2013 0 n/a no infection 2.7 6.12  
07/21/2013 0 n/a no infection 3.2 3.01  
07/22/2013 0 n/a no infection 5.8 0.01  
07/23/2013 20 n/a no infection 9.7 0.00  
07/24/2013 40 n/a no infection 9.7 0.00 P
07/25/2013 30 n/a no infection 3.7 5.03  
07/26/2013 20 n/a no infection 3.7 5.03 P
07/27/2013 M n/a n/a     M
07/28/2013 M RAI is being restarted due to previous unsubstituted missing data 3.3 0.00  
07/29/2013 M RAI is being restarted due to previous unsubstituted missing data 4.3 0.00  
07/30/2013 0 n/a no infection 3.7 0.00  
07/31/2013 0 n/a no infection 3.9 0.00  
08/01/2013 0 n/a no infection 5.1 0.00  
08/02/2013 0 n/a no infection 4.0 0.00  
08/03/2013 0 n/a no infection 4.0 0.00  
08/04/2013 0 n/a no infection 4.6 0.00  
08/05/2013 0 n/a no infection 4.3 0.00  
08/06/2013 0 n/a no infection 5.5 0.00  
08/07/2013 20 n/a no infection 8.0 0.00  
08/08/2013 0 n/a no infection 5.2 0.00  
08/09/2013 20 n/a no infection 9.4 0.00  
08/10/2013 0 n/a no infection 5.1 0.00  
08/11/2013 0 n/a no infection 4.3 0.00  
08/12/2013 0 n/a no infection 3.4 0.00  
08/13/2013 0 n/a no infection 2.5 2.08  
08/14/2013 0 n/a no infection 2.7 1.79  
08/15/2013 0 n/a no infection 2.9 1.95  
08/16/2013 0 n/a no infection 1.9 4.28  
08/17/2013 0 n/a no infection 3.4 2.34  
08/18/2013 0 n/a no infection 3.8 4.87  
08/19/2013 0 n/a no infection 4.3 8.10  
08/20/2013 0 n/a no infection 4.0 2.83  
08/21/2013 0 n/a no infection 4.4 0.03  
08/22/2013 0 n/a no infection 4.2 0.00  
08/23/2013 0 n/a no infection 3.3 0.00  
08/24/2013 0 n/a no infection 3.5 0.00  
08/25/2013 0 n/a no infection 4.2 0.00  
08/26/2013 0 n/a no infection 5.1 0.00  
08/27/2013 0 n/a no infection 3.4 0.00  
08/28/2013 0 n/a no infection 3.3 0.07  
08/29/2013 0 n/a no infection 3.2 0.00  
08/30/2013 0 n/a no infection 1.8 2.73  
08/31/2013 0 n/a no infection 2.5 1.09  
09/01/2013 20 n/a no infection 6.0 0.00  
09/02/2013 40 n/a no infection 10.8 0.00  
09/03/2013 0 n/a no infection 5.1 0.00  
09/04/2013 0 n/a no infection 4.4 0.00  
09/05/2013 0 n/a no infection 5.6 0.00  
09/06/2013 0 n/a no infection 3.2 0.00  
09/07/2013 0 n/a no infection 1.9 3.70  
09/08/2013 0 n/a no infection 1.6 5.63  
09/09/2013 0 n/a no infection 1.7 5.92  
09/10/2013 0 n/a no infection 3.4 0.00  
09/11/2013 20 n/a no infection 8.6 0.00  
09/12/2013 0 n/a no infection 4.5 0.00  
09/13/2013 0 n/a no infection 3.9 0.00  
09/14/2013 0 n/a no infection 4.4 0.00  
09/15/2013 0 n/a no infection 5.7 0.00  
09/16/2013 0 n/a no infection 4.7 0.00  
09/17/2013 20 n/a no infection 7.9 0.00  
09/18/2013 40 n/a no infection 9.7 0.00  
09/19/2013 0 n/a no infection 4.0 0.00  
09/20/2013 20 n/a no infection 9.4 0.00  
09/21/2013 0 n/a no infection 0.0 0.00  
09/22/2013 0 n/a no infection 2.6 0.00  
09/23/2013 20 n/a no infection 8.6 0.00  
09/24/2013 40 n/a no infection 7.7 0.00  
09/25/2013 0 n/a no infection 0.2 0.00  
09/26/2013 0 n/a no infection 3.5 0.00  
09/27/2013 20 n/a no infection 7.2 0.00  
09/28/2013 40 n/a no infection 9.6 0.00  
09/29/2013 60 high reproduces every 5 days 7.1 0.00  

M = missing data - no substitution values were available
P = missing data substituted with values from previous day

Top of page


Statewide IPM Program, Agriculture and Natural Resources, University of California
All contents copyright 2014 The Regents of the University of California. All rights reserved.

For noncommercial purposes only, any Web site may link directly to this page. FOR ALL OTHER USES or more information, read Legal Notices. Unfortunately, we cannot provide individual solutions to specific pest problems. See our Home page, or in the U.S., contact your local Cooperative Extension office for assistance.

Agriculture and Natural Resources, University of California

Accessibility   web template revised: December 27, 2014 Contact webmaster.